Regional Weather Roundup
Issued by NWS

Home | Current Version | Previous Version | Text Only | Print | Product List | Glossary On
Versions: 1 2 3 4 5 6 7 8 9 10 11 12 13 14 15 16 17 18 19 20 21 22 23 24 25 26 27 28 29 30 31 32 33 34 35 36 37 38 39 40 41 42 43 44 45 46 47 48 49 50
000
ASUS43 KTOP 041708
RWRKS

WEATHER ROUNDUP FOR KANSAS
NATIONAL WEATHER SERVICE GOODLAND KS
1200 PM CDT WED MAY 04 2016

NOTE:  "FAIR" INDICATES FEW OR NO CLOUDS BELOW 12,000 FEET WITH NO
SIGNIFICANT WEATHER AND/OR OBSTRUCTIONS TO VISIBILITY.

KSZ001>006-013>018-027>032-041>047-041800-
NORTHWEST KANSAS

CITY           SKY/WX    TMP DP  RH WIND       PRES   REMARKS
GOODLAND       SUNNY     71  39  31 N10G18    30.19S
HAYS           SUNNY     68  39  34 NE9       30.14R
HILL CITY      SUNNY     70  38  31 N10       30.16R
RUSSELL        SUNNY     68  39  34 N10       30.11R
$$

KSZ061>065-074>080-084>089-041800-
SOUTHWEST KANSAS

CITY           SKY/WX    TMP DP  RH WIND       PRES   REMARKS
DODGE CITY     SUNNY     70  43  37 N14       30.15S
ELKHART          N/A     71  39  31 N8          N/A
GARDEN CITY    SUNNY     72  38  29 N14       30.16S
GREAT BEND     SUNNY     66  45  45 N14       30.12S
LIBERAL        SUNNY     72  45  37 N12       30.19R
PRATT          SUNNY     66  41  39 N10       30.12R
$$

KSZ066>073-081>083-090>101-041800-
SOUTHEAST KANSAS

CITY           SKY/WX    TMP DP  RH WIND       PRES   REMARKS
CHANUTE        SUNNY     70  39  32 N16       30.01R
COFFEYVILLE    SUNNY     72  41  32 N16G26    30.00R
HUTCHINSON     SUNNY     72  39  30 N16G26    30.09R
MEDICINE LODGE   N/A     75  46  35 N13G21    30.08R
NEWTON         SUNNY     66  37  34 N17       30.09S
PARSONS        SUNNY     71  37  28 N21G28    30.01R
WICHITA INTL   SUNNY     71  37  28 N17G24    30.07R
WICHITA JABRA  SUNNY     71  39  31 N18       30.06R
WICHITA MCCONL SUNNY     70  39  31 N18       30.06R
WINFIELD       SUNNY     73  43  33 N14       30.29S
$$

KSZ007>012-019>026-033>040-048>060-102>105-041800-
NORTHEAST KANSAS

CITY           SKY/WX    TMP DP  RH WIND       PRES   REMARKS
CONCORDIA      SUNNY     66  35  31 N13       30.09S
EMPORIA        SUNNY     68  35  29 N14G24    30.04R
LAWRENCE       SUNNY     67  43  41 N16       30.02R
MANHATTAN      SUNNY     68  35  29 N10G21    30.07R
MARYSVILLE     SUNNY     63  41  45 N12G21    30.07R
OLATHE IND     SUNNY     67  43  41 N15G22    30.01R
OLATHE EXE     SUNNY     65  39  38 N14G22    30.00R
SALINA         SUNNY     70  39  32 N20       30.09S
TOPEKA BILLARD SUNNY     67  37  33 NW16G29   30.03R
TOPEKA FORBES  SUNNY     69  37  30 NW16G29   30.02S
$$



USA.gov is the U.S. government's official web portal to all federal, state and local government web resources and services.